Вернуться в каталог

STARLINK-30534

АктивенСвязьVLEO
NORAD 57992·PAYLOAD·🇺🇸 United States

Запущен Oct 5, 2023 с Cape Canaveral Space Force Station

Loading…

Ближайшие Пролёты (ближайшие 24 часа)

TLE

СвежийSource: CelesTrak SupGP

Эпоха: Sep 14, 2026, 20:55 UTC

1 57992C 23153B   26257.87201389  .00033117  00000+0  11996-2 0  2575
2 57992  43.0020  78.3885 0001110 263.8828  54.7404 15.27559892    10

Отслеживайте STARLINK-30534 в реальном времени с AllMySat

Download on the App Store